| time (UTC) | temp F | wind direction | speed knots | gust knots | rain 1hr in | rain 24hr in | rain mn in | humidity % | barometer mb |
| 20260904095646 | 80 | 195 | 1.7 | 2.6 | 0.00 | 0.00 | 0.00 | 93 | 1012.9 |
| 20260904095148 | 81 | 214 | 0.0 | 1.7 | 0.00 | 0.00 | 0.00 | 93 | 1012.9 |
| 20260904094647 | 81 | 297 | 0.9 | 0.9 | 0.00 | 0.00 | 0.00 | 93 | 1012.5 |
| 20260904094146 | 81 | 246 | 0.9 | 1.7 | 0.00 | 0.00 | 0.00 | 93 | 1012.9 |
| 20260904093646 | 80 | 287 | 0.9 | 2.6 | 0.00 | 0.00 | 0.00 | 93 | 1012.9 |
| 20260904093147 | 80 | 281 | 0.0 | 2.6 | 0.00 | 0.00 | 0.00 | 93 | 1012.9 |
| 20260904092646 | 80 | 214 | 0.0 | 2.6 | 0.00 | 0.00 | 0.00 | 93 | 1012.5 |
| 20260904092147 | 80 | 220 | 1.7 | 2.6 | 0.00 | 0.00 | 0.00 | 92 | 1012.9 |
| 20260904091647 | 80 | 267 | 1.7 | 2.6 | 0.00 | 0.00 | 0.00 | 93 | 1012.9 |
| 20260904091147 | 80 | 300 | 1.7 | 2.6 | 0.00 | 0.00 | 0.00 | 92 | 1012.9 |
| 20260904090647 | 80 | 310 | 1.7 | 2.6 | 0.00 | 0.00 | 0.00 | 92 | 1012.9 |
| 20260904090146 | 80 | 300 | 1.7 | 2.6 | 0.00 | 0.00 | 0.00 | 92 | 1012.9 |
| 20260904085647 | 80 | 285 | 2.6 | 2.6 | 0.00 | 0.00 | 0.00 | 93 | 1012.9 |
| 20260904085146 | 80 | 275 | 1.7 | 3.5 | 0.00 | 0.00 | 0.00 | 93 | 1012.9 |
| 20260904084647 | 80 | 282 | 2.6 | 2.6 | 0.00 | 0.00 | 0.00 | 93 | 1012.9 |
| 20260904084147 | 80 | 312 | 0.9 | 2.6 | 0.00 | 0.00 | 0.00 | 93 | 1012.9 |
| 20260904083646 | 81 | 287 | 1.7 | 1.7 | 0.00 | 0.00 | 0.00 | 93 | 1012.9 |
| 20260904083146 | 81 | 272 | 2.6 | 2.6 | 0.00 | 0.00 | 0.00 | 93 | 1013.2 |
| 20260904082646 | 80 | 258 | 0.0 | 1.7 | 0.00 | 0.00 | 0.00 | 93 | 1012.9 |
| 20260904082146 | 80 | 293 | 1.7 | 1.7 | 0.00 | 0.00 | 0.00 | 93 | 1012.9 |
| 20260904081648 | 80 | 341 | 0.0 | 0.9 | 0.00 | 0.00 | 0.00 | 93 | 1013.2 |
| 20260904081146 | 80 | 326 | 0.0 | 0.9 | 0.00 | 0.00 | 0.00 | 93 | 1013.2 |
| 20260904080646 | 80 | 224 | 0.0 | 0.0 | 0.00 | 0.00 | 0.00 | 93 | 1012.9 |
| 20260904080146 | 80 | 224 | 0.0 | 0.0 | 0.00 | 0.00 | 0.00 | 93 | 1013.2 |
| 20260904075646 | 80 | 229 | 0.0 | 1.7 | 0.00 | 0.00 | 0.00 | 93 | 1012.9 |
| 20260904075146 | 80 | 231 | 0.9 | 1.7 | 0.00 | 0.00 | 0.00 | 93 | 1012.9 |
| 20260904074646 | 80 | 193 | 0.0 | 1.7 | 0.00 | 0.00 | 0.00 | 93 | 1013.2 |
| 20260904074148 | 80 | 234 | 0.9 | 1.7 | 0.00 | 0.00 | 0.00 | 93 | 1013.2 |
| 20260904073647 | 80 | 234 | 1.7 | 1.7 | 0.00 | 0.00 | 0.00 | 93 | 1013.2 |
| 20260904073147 | 81 | 210 | 0.0 | 0.9 | 0.00 | 0.00 | 0.00 | 93 | 1012.9 |
| 20260904072646 | 81 | 304 | 0.0 | 0.0 | 0.00 | 0.00 | 0.00 | 93 | 1012.9 |
| 20260904072148 | 80 | 329 | 0.0 | 1.7 | 0.00 | 0.00 | 0.00 | 93 | 1013.2 |
| 20260904071647 | 80 | 230 | 0.0 | 0.0 | 0.00 | 0.00 | 0.00 | 93 | 1012.9 |
| 20260904071147 | 80 | 246 | 0.0 | 0.9 | 0.00 | 0.00 | 0.00 | 93 | 1012.9 |
| 20260904070646 | 80 | 218 | 0.9 | 1.7 | 0.00 | 0.00 | 0.00 | 93 | 1013.2 |
| 20260904070146 | 80 | 237 | 0.9 | 1.7 | 0.00 | 0.00 | 0.00 | 94 | 1013.2 |
| 20260904065647 | 80 | 185 | 0.0 | 1.7 | 0.00 | 0.00 | 0.00 | 93 | 1013.2 |
| 20260904065146 | 80 | 224 | 0.0 | 0.0 | 0.00 | 0.00 | 0.00 | 93 | 1013.2 |
| 20260904064647 | 80 | 222 | 0.0 | 0.9 | 0.00 | 0.00 | 0.00 | 93 | 1013.2 |
| 20260904064146 | 81 | 255 | 0.0 | 0.9 | 0.00 | 0.00 | 0.00 | 93 | 1013.2 |
| 20260904063648 | 80 | 315 | 0.0 | 0.9 | 0.00 | 0.00 | 0.00 | 93 | 1013.2 |
| 20260904063147 | 80 | 224 | 0.0 | 0.0 | 0.00 | 0.00 | 0.00 | 93 | 1013.2 |
| 20260904062647 | 80 | 224 | 0.0 | 0.9 | 0.00 | 0.00 | 0.00 | 93 | 1013.2 |
| 20260904062146 | 80 | 218 | 0.0 | 0.9 | 0.00 | 0.00 | 0.00 | 93 | 1013.2 |
| 20260904061647 | 80 | 242 | 0.0 | 0.0 | 0.00 | 0.00 | 0.00 | 93 | 1013.2 |
| 20260904061148 | 80 | 135 | 0.0 | 0.0 | 0.00 | 0.00 | 0.00 | 93 | 1013.2 |
| 20260904060646 | 80 | 135 | 0.0 | 0.9 | 0.00 | 0.00 | 0.00 | 93 | 1013.2 |
| 20260904060147 | 80 | 32 | 0.0 | 0.9 | 0.00 | 0.00 | 0.00 | 93 | 1013.5 |
| 20260904055647 | 81 | 142 | 0.0 | 0.0 | 0.00 | 0.00 | 0.00 | 92 | 1013.2 |
| 20260904055146 | 81 | 142 | 0.0 | 0.0 | 0.00 | 0.00 | 0.00 | 92 | 1013.2 |
| 20260904054646 | 81 | 195 | 0.0 | 0.9 | 0.00 | 0.00 | 0.00 | 92 | 1013.2 |
| 20260904054146 | 81 | 190 | 0.9 | 0.9 | 0.00 | 0.00 | 0.00 | 92 | 1013.2 |
| 20260904053646 | 81 | 224 | 0.9 | 1.7 | 0.00 | 0.00 | 0.00 | 92 | 1013.2 |
| 20260904053147 | 81 | 184 | 0.0 | 0.9 | 0.00 | 0.00 | 0.00 | 91 | 1013.2 |
| 20260904052646 | 81 | 284 | 0.0 | 0.9 | 0.00 | 0.00 | 0.00 | 91 | 1013.2 |
| 20260904052147 | 81 | 343 | 0.0 | 0.9 | 0.00 | 0.00 | 0.00 | 91 | 1013.2 |
| 20260904051646 | 81 | 272 | 0.0 | 1.7 | 0.00 | 0.00 | 0.00 | 91 | 1012.9 |
| 20260904051147 | 81 | 242 | 0.0 | 0.9 | 0.00 | 0.00 | 0.00 | 90 | 1012.9 |
| 20260904050646 | 81 | 224 | 0.0 | 0.0 | 0.00 | 0.00 | 0.00 | 90 | 1012.9 |
| 20260904050146 | 81 | 269 | 0.0 | 0.9 | 0.00 | 0.00 | 0.00 | 90 | 1012.9 |
| 20260904045647 | 81 | 242 | 0.0 | 0.9 | 0.00 | 0.00 | 0.00 | 89 | 1012.9 |
| 20260904045147 | 81 | 215 | 0.0 | 1.7 | 0.00 | 0.00 | 0.00 | 89 | 1012.9 |
| 20260904044646 | 82 | 229 | 0.9 | 1.7 | 0.00 | 0.00 | 0.00 | 88 | 1012.5 |
| 20260904044146 | 82 | 293 | 0.0 | 0.0 | 0.00 | 0.00 | 0.00 | 88 | 1012.9 |
| 20260904043646 | 82 | 263 | 1.7 | 1.7 | 0.00 | 0.00 | 0.00 | 89 | 1012.9 |
| 20260904043147 | 82 | 222 | 1.7 | 2.6 | 0.00 | 0.00 | 0.00 | 88 | 1012.9 |
| 20260904042646 | 82 | 224 | 0.0 | 0.9 | 0.00 | 0.00 | 0.00 | 88 | 1012.5 |
| 20260904042147 | 82 | 230 | 0.0 | 0.0 | 0.00 | 0.00 | 0.00 | 87 | 1012.9 |
| 20260904041646 | 82 | 224 | 0.0 | 0.9 | 0.00 | 0.00 | 0.00 | 87 | 1012.9 |
| 20260904041148 | 82 | 210 | 0.0 | 0.9 | 0.00 | 0.00 | 0.00 | 87 | 1012.9 |
| 20260904040646 | 82 | 141 | 0.9 | 0.9 | 0.00 | 0.00 | 0.00 | 87 | 1012.9 |
| 20260904040149 | 82 | 315 | 0.0 | 0.9 | 0.00 | 0.00 | 0.00 | 87 | 1012.9 |
| 20260904035646 | 82 | 294 | 0.0 | 1.7 | 0.00 | 0.00 | 0.00 | 87 | 1012.9 |
| 20260904035147 | 82 | 255 | 0.0 | 0.9 | 0.00 | 0.00 | 0.00 | 86 | 1012.9 |
| 20260904034646 | 82 | 173 | 0.0 | 0.9 | 0.00 | 0.00 | 0.00 | 86 | 1013.2 |
| 20260904034146 | 82 | 160 | 1.7 | 1.7 | 0.00 | 0.00 | 0.00 | 86 | 1012.9 |
| 20260904033646 | 82 | 142 | 0.0 | 0.0 | 0.00 | 0.00 | 0.00 | 86 | 1013.2 |
| 20260904033146 | 82 | 224 | 0.0 | 0.9 | 0.00 | 0.00 | 0.00 | 86 | 1013.2 |
| 20260904032646 | 83 | 210 | 0.0 | 0.9 | 0.00 | 0.00 | 0.00 | 86 | 1013.2 |
| 20260904032149 | 82 | 197 | 0.9 | 1.7 | 0.00 | 0.00 | 0.00 | 86 | 1013.2 |
| 20260904031647 | 83 | 195 | 0.9 | 1.7 | 0.00 | 0.00 | 0.00 | 86 | 1013.2 |
| 20260904031146 | 83 | 215 | 0.0 | 0.9 | 0.00 | 0.00 | 0.00 | 86 | 1013.2 |
| 20260904030646 | 83 | 186 | 0.9 | 1.7 | 0.00 | 0.00 | 0.00 | 86 | 1013.5 |
| 20260904030147 | 83 | 173 | 1.7 | 2.6 | 0.00 | 0.00 | 0.00 | 85 | 1013.5 |
| 20260904025647 | 83 | 138 | 1.7 | 2.6 | 0.00 | 0.00 | 0.00 | 85 | 1013.5 |
| 20260904025146 | 83 | 117 | 0.0 | 3.5 | 0.00 | 0.00 | 0.00 | 85 | 1013.5 |
| 20260904024647 | 83 | 176 | 1.7 | 2.6 | 0.00 | 0.00 | 0.00 | 85 | 1013.5 |
| 20260904024147 | 83 | 180 | 0.9 | 1.7 | 0.00 | 0.00 | 0.00 | 85 | 1013.5 |
| 20260904023647 | 83 | 204 | 1.7 | 3.5 | 0.00 | 0.00 | 0.00 | 85 | 1013.5 |
| 20260904023147 | 84 | 164 | 1.7 | 1.7 | 0.00 | 0.00 | 0.00 | 84 | 1013.5 |
| 20260904022646 | 84 | 139 | 1.7 | 2.6 | 0.00 | 0.00 | 0.00 | 84 | 1013.5 |
| 20260904022147 | 84 | 155 | 1.7 | 2.6 | 0.00 | 0.00 | 0.00 | 84 | 1013.5 |
| 20260904021646 | 83 | 118 | 1.7 | 2.6 | 0.00 | 0.00 | 0.00 | 84 | 1013.5 |
| 20260904021146 | 84 | 160 | 2.6 | 2.6 | 0.00 | 0.00 | 0.00 | 84 | 1013.5 |
| 20260904020647 | 84 | 161 | 1.7 | 2.6 | 0.00 | 0.00 | 0.00 | 84 | 1013.5 |
| 20260904020146 | 84 | 140 | 0.9 | 2.6 | 0.00 | 0.00 | 0.00 | 84 | 1013.5 |
| 20260904015647 | 84 | 156 | 1.7 | 2.6 | 0.00 | 0.00 | 0.00 | 83 | 1013.5 |
| 20260904015146 | 84 | 163 | 1.7 | 2.6 | 0.00 | 0.00 | 0.00 | 83 | 1013.5 |
| 20260904014647 | 84 | 161 | 2.6 | 2.6 | 0.00 | 0.00 | 0.00 | 83 | 1013.2 |
| 20260904014147 | 84 | 176 | 1.7 | 2.6 | 0.00 | 0.00 | 0.00 | 83 | 1013.2 |
| 20260904013646 | 84 | 163 | 1.7 | 2.6 | 0.00 | 0.00 | 0.00 | 83 | 1013.2 |
| 20260904013148 | 84 | 158 | 2.6 | 2.6 | 0.00 | 0.00 | 0.00 | 82 | 1013.2 |
| 20260904012646 | 84 | 154 | 1.7 | 3.5 | 0.00 | 0.00 | 0.00 | 82 | 1013.2 |
| 20260904012146 | 84 | 145 | 2.6 | 3.5 | 0.00 | 0.00 | 0.00 | 83 | 1012.9 |
| 20260904011646 | 84 | 161 | 2.6 | 3.5 | 0.00 | 0.00 | 0.00 | 83 | 1013.2 |
| 20260904011146 | 84 | 164 | 2.6 | 2.6 | 0.00 | 0.00 | 0.00 | 83 | 1013.2 |
| 20260904010647 | 84 | 183 | 3.5 | 3.5 | 0.00 | 0.00 | 0.00 | 82 | 1013.2 |
| 20260904010147 | 84 | 167 | 2.6 | 3.5 | 0.00 | 0.00 | 0.00 | 82 | 1013.2 |
| 20260904005646 | 84 | 155 | 3.5 | 4.3 | 0.00 | 0.00 | 0.00 | 81 | 1013.2 |
| 20260904005146 | 84 | 173 | 1.7 | 4.3 | 0.00 | 0.00 | 0.00 | 81 | 1013.2 |
| 20260904004646 | 84 | 172 | 4.3 | 4.3 | 0.00 | 0.00 | 0.00 | 82 | 1013.2 |
| 20260904004147 | 85 | 168 | 4.3 | 5.2 | 0.00 | 0.00 | 0.00 | 81 | 1013.2 |
| 20260904003646 | 85 | 182 | 4.3 | 6.1 | 0.00 | 0.00 | 0.00 | 81 | 1013.5 |
| 20260904003146 | 85 | 186 | 4.3 | 5.2 | 0.00 | 0.00 | 0.00 | 81 | 1013.2 |
| 20260904002646 | 85 | 168 | 3.5 | 5.2 | 0.00 | 0.00 | 0.00 | 80 | 1013.2 |
| 20260904002146 | 85 | 191 | 2.6 | 4.3 | 0.00 | 0.00 | 0.00 | 80 | 1013.2 |
| 20260904001646 | 85 | 162 | 2.6 | 4.3 | 0.00 | 0.00 | 0.00 | 80 | 1013.2 |
| 20260904001146 | 85 | 167 | 2.6 | 5.2 | 0.00 | 0.00 | 0.00 | 79 | 1013.2 |
| 20260904000647 | 86 | 166 | 3.5 | 4.3 | 0.00 | 0.00 | 0.00 | 79 | 1012.9 |
| 20260904000146 | 86 | 155 | 1.7 | 4.3 | 0.00 | 0.00 | 0.00 | 78 | 1013.2 |
| 20260903235646 | 86 | 180 | 3.5 | 5.2 | 0.00 | 0.00 | 0.00 | 78 | 1013.2 |
| 20260903235146 | 86 | 162 | 4.3 | 7.0 | 0.00 | 0.00 | 0.00 | 78 | 1013.2 |
| 20260903234646 | 86 | 162 | 3.5 | 4.3 | 0.00 | 0.00 | 0.00 | 78 | 1013.2 |
| 20260903234146 | 86 | 176 | 3.5 | 6.1 | 0.00 | 0.00 | 0.00 | 77 | 1013.2 |
| 20260903233646 | 86 | 169 | 4.3 | 6.1 | 0.00 | 0.00 | 0.00 | 77 | 1013.2 |
| 20260903233147 | 87 | 184 | 4.3 | 5.2 | 0.00 | 0.00 | 0.00 | 77 | 1013.2 |
| 20260903232646 | 87 | 176 | 4.3 | 7.0 | 0.00 | 0.00 | 0.00 | 76 | 1012.9 |
| 20260903232146 | 87 | 152 | 2.6 | 5.2 | 0.00 | 0.00 | 0.00 | 76 | 1012.9 |
| 20260903231646 | 87 | 169 | 6.1 | 7.8 | 0.00 | 0.00 | 0.00 | 75 | 1012.9 |
| 20260903231146 | 87 | 181 | 5.2 | 5.2 | 0.00 | 0.00 | 0.00 | 76 | 1012.9 |
| 20260903230648 | 87 | 184 | 4.3 | 7.0 | 0.00 | 0.00 | 0.00 | 76 | 1012.9 |
| 20260903230150 | 87 | 190 | 5.2 | 9.6 | 0.00 | 0.00 | 0.00 | 76 | 1012.5 |
| 20260903225647 | 87 | 161 | 7.0 | 9.6 | 0.00 | 0.00 | 0.00 | 77 | 1012.9 |
| 20260903225146 | 87 | 174 | 5.2 | 9.6 | 0.00 | 0.00 | 0.00 | 76 | 1012.5 |
| 20260903224646 | 87 | 167 | 7.8 | 10.4 | 0.00 | 0.00 | 0.00 | 75 | 1012.9 |
| 20260903224149 | 87 | 167 | 7.8 | 12.2 | 0.00 | 0.00 | 0.00 | 75 | 1012.9 |
| 20260903223647 | 88 | 175 | 5.2 | 7.8 | 0.00 | 0.00 | 0.00 | 73 | 1012.9 |
| 20260903223146 | 88 | 164 | 4.3 | 6.1 | 0.00 | 0.00 | 0.00 | 72 | 1012.9 |
| 20260903222646 | 88 | 166 | 3.5 | 5.2 | 0.00 | 0.00 | 0.00 | 73 | 1012.5 |
| 20260903222146 | 88 | 165 | 7.0 | 7.8 | 0.00 | 0.00 | 0.00 | 71 | 1012.9 |
| 20260903221646 | 88 | 171 | 3.5 | 7.8 | 0.00 | 0.00 | 0.00 | 70 | 1012.5 |
| 20260903221147 | 88 | 158 | 4.3 | 8.7 | 0.00 | 0.00 | 0.00 | 69 | 1012.9 |
| 20260903220647 | 89 | 167 | 7.0 | 7.0 | 0.00 | 0.00 | 0.00 | 69 | 1012.9 |
| 20260903220147 | 89 | 160 | 4.3 | 7.8 | 0.00 | 0.00 | 0.00 | 69 | 1012.9 |
| 20260903215647 | 89 | 176 | 2.6 | 5.2 | 0.00 | 0.00 | 0.00 | 69 | 1012.9 |
| 20260903215146 | 89 | 173 | 5.2 | 6.1 | 0.00 | 0.00 | 0.00 | 69 | 1012.9 |
| 20260903214647 | 89 | 163 | 5.2 | 8.7 | 0.00 | 0.00 | 0.00 | 68 | 1012.9 |
| 20260903214146 | 89 | 178 | 4.3 | 6.1 | 0.00 | 0.00 | 0.00 | 69 | 1012.9 |
| 20260903213648 | 88 | 173 | 2.6 | 5.2 | 0.00 | 0.00 | 0.00 | 72 | 1012.9 |
| 20260903213147 | 88 | 161 | 6.1 | 6.1 | 0.00 | 0.00 | 0.00 | 73 | 1013.2 |
| 20260903212647 | 88 | 171 | 3.5 | 5.2 | 0.00 | 0.00 | 0.00 | 74 | 1013.2 |
| 20260903212150 | 88 | 173 | 8.7 | 8.7 | 0.00 | 0.00 | 0.00 | 74 | 1012.9 |
| 20260903211646 | 88 | 180 | 4.3 | 7.0 | 0.00 | 0.00 | 0.00 | 74 | 1012.9 |
| 20260903211147 | 87 | 180 | 2.6 | 4.3 | 0.00 | 0.00 | 0.00 | 77 | 1012.9 |
| 20260903210646 | 87 | 179 | 4.3 | 7.0 | 0.00 | 0.00 | 0.00 | 77 | 1012.9 |
| 20260903210149 | 87 | 204 | 3.5 | 7.0 | 0.00 | 0.00 | 0.00 | 77 | 1012.9 |
| 20260903205646 | 86 | 231 | 3.5 | 7.8 | 0.00 | 0.00 | 0.00 | 78 | 1013.2 |
| 20260903205147 | 86 | 173 | 4.3 | 7.8 | 0.00 | 0.00 | 0.00 | 78 | 1012.9 |
| 20260903204646 | 87 | 264 | 3.5 | 8.7 | 0.00 | 0.00 | 0.00 | 77 | 1012.9 |
| 20260903204148 | 87 | 227 | 6.1 | 6.1 | 0.00 | 0.00 | 0.00 | 78 | 1013.2 |
| 20260903203647 | 87 | 228 | 5.2 | 7.8 | 0.00 | 0.00 | 0.00 | 77 | 1012.9 |
| 20260903203146 | 87 | 238 | 2.6 | 7.8 | 0.00 | 0.00 | 0.00 | 76 | 1012.9 |
| 20260903202646 | 87 | 212 | 7.0 | 10.4 | 0.00 | 0.00 | 0.00 | 76 | 1013.2 |
| 20260903202146 | 88 | 196 | 7.8 | 11.3 | 0.00 | 0.00 | 0.00 | 75 | 1013.2 |
| 20260903201647 | 89 | 238 | 7.0 | 7.8 | 0.00 | 0.00 | 0.00 | 74 | 1013.2 |
| 20260903201148 | 89 | 218 | 4.3 | 7.0 | 0.00 | 0.00 | 0.00 | 74 | 1013.2 |
| 20260903200647 | 89 | 197 | 6.1 | 7.8 | 0.00 | 0.00 | 0.00 | 72 | 1013.5 |
| 20260903200147 | 89 | 190 | 6.1 | 7.0 | 0.00 | 0.00 | 0.00 | 71 | 1013.5 |
| 20260903195646 | 89 | 251 | 5.2 | 6.1 | 0.00 | 0.00 | 0.00 | 72 | 1013.2 |
| 20260903195146 | 89 | 187 | 3.5 | 6.1 | 0.00 | 0.00 | 0.00 | 72 | 1013.5 |
| 20260903194647 | 88 | 205 | 3.5 | 5.2 | 0.00 | 0.00 | 0.00 | 72 | 1013.5 |
| 20260903194147 | 87 | 255 | 4.3 | 7.8 | 0.00 | 0.00 | 0.00 | 72 | 1013.5 |
| 20260903193646 | 87 | 269 | 3.5 | 7.8 | 0.00 | 0.00 | 0.00 | 73 | 1013.5 |
| 20260903193146 | 86 | 232 | 4.3 | 9.6 | 0.00 | 0.00 | 0.00 | 75 | 1013.5 |
| 20260903192646 | 86 | 235 | 5.2 | 9.6 | 0.00 | 0.00 | 0.00 | 76 | 1013.5 |
| 20260903192146 | 86 | 224 | 6.1 | 7.8 | 0.00 | 0.00 | 0.00 | 76 | 1013.5 |
| 20260903191647 | 86 | 214 | 4.3 | 8.7 | 0.00 | 0.00 | 0.00 | 77 | 1013.5 |
| 20260903191147 | 87 | 247 | 4.3 | 8.7 | 0.00 | 0.00 | 0.00 | 76 | 1014.2 |
| 20260903190646 | 88 | 226 | 4.3 | 6.1 | 0.00 | 0.00 | 0.00 | 74 | 1013.9 |
| 20260903190147 | 87 | 209 | 3.5 | 5.2 | 0.00 | 0.00 | 0.00 | 76 | 1014.2 |
| 20260903185647 | 87 | 227 | 5.2 | 6.1 | 0.00 | 0.00 | 0.00 | 74 | 1014.2 |
| 20260903185147 | 87 | 194 | 3.5 | 6.1 | 0.00 | 0.00 | 0.00 | 73 | 1014.2 |
| 20260903184648 | 86 | 243 | 5.2 | 6.1 | 0.00 | 0.00 | 0.00 | 74 | 1014.2 |
| 20260903184147 | 86 | 184 | 2.6 | 5.2 | 0.00 | 0.00 | 0.00 | 75 | 1014.2 |
| 20260903183646 | 86 | 224 | 0.0 | 3.5 | 0.00 | 0.00 | 0.00 | 74 | 1013.9 |
| 20260903183146 | 88 | 165 | 6.1 | 7.0 | 0.00 | 0.00 | 0.00 | 71 | 1014.2 |
| 20260903182647 | 90 | 75 | 0.9 | 5.2 | 0.00 | 0.00 | 0.00 | 67 | 1014.2 |
| 20260903182147 | 90 | 42 | 1.7 | 3.5 | 0.00 | 0.00 | 0.00 | 67 | 1014.6 |
| 20260903181646 | 89 | 156 | 3.5 | 3.5 | 0.00 | 0.00 | 0.00 | 67 | 1014.6 |
| 20260903181147 | 89 | 75 | 2.6 | 3.5 | 0.00 | 0.00 | 0.00 | 68 | 1014.2 |
| 20260903180647 | 89 | 34 | 1.7 | 2.6 | 0.00 | 0.00 | 0.00 | 71 | 1014.2 |
| 20260903180146 | 89 | 302 | 2.6 | 4.3 | 0.00 | 0.00 | 0.00 | 70 | 1014.2 |
| 20260903175646 | 90 | 63 | 3.5 | 7.0 | 0.00 | 0.00 | 0.00 | 69 | 1014.6 |
| 20260903175148 | 89 | 52 | 5.2 | 6.1 | 0.00 | 0.00 | 0.00 | 70 | 1014.6 |
| 20260903174646 | 89 | 41 | 3.5 | 7.0 | 0.00 | 0.00 | 0.00 | 71 | 1014.6 |
| 20260903174147 | 89 | 4 | 3.5 | 4.3 | 0.00 | 0.00 | 0.00 | 71 | 1014.6 |
| 20260903173646 | 89 | 17 | 1.7 | 4.3 | 0.00 | 0.00 | 0.00 | 71 | 1014.6 |
| 20260903173146 | 88 | 39 | 1.7 | 9.6 | 0.00 | 0.00 | 0.00 | 72 | 1014.6 |
| 20260903172647 | 89 | 25 | 4.3 | 7.0 | 0.00 | 0.00 | 0.00 | 72 | 1014.9 |
| 20260903172147 | 89 | 42 | 5.2 | 5.2 | 0.00 | 0.00 | 0.00 | 71 | 1014.9 |
| 20260903171649 | 89 | 355 | 4.3 | 6.1 | 0.00 | 0.00 | 0.00 | 71 | 1015.2 |
| 20260903171147 | 89 | 21 | 0.0 | 5.2 | 0.00 | 0.00 | 0.00 | 72 | 1015.2 |
| 20260903170647 | 89 | 360 | 2.6 | 7.8 | 0.00 | 0.00 | 0.00 | 72 | 1015.2 |
| 20260903170146 | 89 | 60 | 0.9 | 6.1 | 0.00 | 0.00 | 0.00 | 72 | 1015.2 |
| 20260903165646 | 89 | 30 | 5.2 | 6.1 | 0.00 | 0.00 | 0.00 | 72 | 1015.2 |
| 20260903165146 | 88 | 4 | 3.5 | 4.3 | 0.00 | 0.00 | 0.00 | 72 | 1015.2 |
| 20260903164646 | 88 | 352 | 6.1 | 7.0 | 0.00 | 0.00 | 0.00 | 73 | 1015.2 |
| 20260903164147 | 88 | 338 | 2.6 | 6.1 | 0.00 | 0.00 | 0.00 | 74 | 1015.2 |
| 20260903163646 | 89 | 357 | 4.3 | 7.8 | 0.00 | 0.00 | 0.00 | 73 | 1015.6 |
| 20260903163147 | 88 | 338 | 3.5 | 6.1 | 0.00 | 0.00 | 0.00 | 73 | 1015.2 |
| 20260903162647 | 88 | 24 | 3.5 | 7.0 | 0.00 | 0.00 | 0.00 | 73 | 1015.2 |
| 20260903162148 | 88 | 47 | 2.6 | 7.0 | 0.00 | 0.00 | 0.00 | 73 | 1015.2 |
| 20260903161648 | 88 | 26 | 2.6 | 7.8 | 0.00 | 0.00 | 0.00 | 74 | 1015.6 |
| 20260903161147 | 88 | 325 | 0.9 | 6.1 | 0.00 | 0.00 | 0.00 | 75 | 1015.2 |
| 20260903160647 | 88 | 360 | 5.2 | 9.6 | 0.00 | 0.00 | 0.00 | 74 | 1015.2 |
| 20260903160149 | 88 | 1 | 1.7 | 7.0 | 0.00 | 0.00 | 0.00 | 74 | 1015.2 |
| 20260903155647 | 87 | 328 | 5.2 | 7.0 | 0.00 | 0.00 | 0.00 | 76 | 1015.6 |
| 20260903155147 | 87 | 360 | 3.5 | 5.2 | 0.00 | 0.00 | 0.00 | 77 | 1015.2 |
| 20260903154647 | 86 | 1 | 3.5 | 5.2 | 0.00 | 0.00 | 0.00 | 78 | 1015.2 |
| 20260903154147 | 87 | 62 | 2.6 | 7.8 | 0.00 | 0.00 | 0.00 | 78 | 1015.2 |
| 20260903153647 | 87 | 47 | 3.5 | 7.0 | 0.00 | 0.00 | 0.00 | 77 | 1015.2 |
| 20260903153147 | 86 | 354 | 1.7 | 5.2 | 0.00 | 0.00 | 0.00 | 78 | 1015.2 |
| 20260903152647 | 87 | 25 | 2.6 | 6.1 | 0.00 | 0.00 | 0.00 | 78 | 1015.2 |
| 20260903152146 | 87 | 18 | 7.0 | 7.0 | 0.00 | 0.00 | 0.00 | 77 | 1015.2 |
| 20260903151647 | 87 | 353 | 2.6 | 6.1 | 0.00 | 0.00 | 0.00 | 76 | 1014.9 |
| 20260903151146 | 88 | 346 | 2.6 | 6.1 | 0.00 | 0.00 | 0.00 | 76 | 1014.9 |
| 20260903150648 | 88 | 51 | 3.5 | 5.2 | 0.00 | 0.00 | 0.00 | 69 | 1015.2 |
| 20260903150146 | 89 | 70 | 5.2 | 7.0 | 0.00 | 0.00 | 0.00 | 66 | 1015.2 |
| 20260903145646 | 89 | 29 | 0.9 | 3.5 | 0.00 | 0.00 | 0.00 | 67 | 1015.2 |
| 20260903145148 | 88 | 227 | 1.7 | 3.5 | 0.00 | 0.00 | 0.00 | 70 | 1014.9 |
| 20260903144648 | 89 | 344 | 3.5 | 5.2 | 0.00 | 0.00 | 0.00 | 68 | 1014.9 |
| 20260903144148 | 88 | 302 | 1.7 | 2.6 | 0.00 | 0.00 | 0.00 | 73 | 1014.9 |
| 20260903143650 | 87 | 318 | 1.7 | 4.3 | 0.00 | 0.00 | 0.00 | 74 | 1015.2 |
| 20260903143147 | 87 | 317 | 2.6 | 3.5 | 0.00 | 0.00 | 0.00 | 72 | 1015.2 |
| 20260903142647 | 87 | 51 | 7.0 | 7.8 | 0.00 | 0.00 | 0.00 | 71 | 1015.2 |
| 20260903142147 | 87 | 357 | 1.7 | 7.0 | 0.00 | 0.00 | 0.00 | 74 | 1015.2 |
| 20260903141646 | 87 | 47 | 4.3 | 4.3 | 0.00 | 0.00 | 0.00 | 74 | 1015.2 |
| 20260903141147 | 87 | 75 | 2.6 | 4.3 | 0.00 | 0.00 | 0.00 | 74 | 1015.2 |
| 20260903140647 | 87 | 2 | 3.5 | 4.3 | 0.00 | 0.00 | 0.00 | 74 | 1015.2 |
| 20260903140147 | 87 | 357 | 1.7 | 4.3 | 0.00 | 0.00 | 0.00 | 75 | 1015.2 |
| 20260903135647 | 87 | 347 | 2.6 | 3.5 | 0.00 | 0.00 | 0.00 | 74 | 1015.2 |
| 20260903135147 | 86 | 324 | 0.0 | 3.5 | 0.00 | 0.00 | 0.00 | 75 | 1015.2 |
| 20260903134646 | 86 | 329 | 3.5 | 4.3 | 0.00 | 0.00 | 0.00 | 74 | 1015.2 |
| 20260903134147 | 87 | 53 | 1.7 | 3.5 | 0.00 | 0.00 | 0.00 | 75 | 1015.2 |
| 20260903133649 | 87 | 81 | 2.6 | 3.5 | 0.00 | 0.00 | 0.00 | 75 | 1015.2 |
| 20260903133147 | 86 | 51 | 2.6 | 4.3 | 0.00 | 0.00 | 0.00 | 76 | 1015.2 |
| 20260903132647 | 86 | 330 | 0.9 | 2.6 | 0.00 | 0.00 | 0.00 | 78 | 1015.2 |
| 20260903132147 | 86 | 331 | 1.7 | 2.6 | 0.00 | 0.00 | 0.00 | 79 | 1015.2 |
| 20260903131647 | 86 | 62 | 1.7 | 3.5 | 0.00 | 0.00 | 0.00 | 77 | 1015.2 |
| 20260903131147 | 86 | 310 | 0.0 | 0.9 | 0.00 | 0.00 | 0.00 | 78 | 1015.2 |
| 20260903130646 | 87 | 92 | 0.9 | 2.6 | 0.00 | 0.00 | 0.00 | 77 | 1015.2 |
| 20260903130147 | 86 | 262 | 0.0 | 1.7 | 0.00 | 0.00 | 0.00 | 79 | 1015.2 |
| 20260903125647 | 85 | 350 | 0.9 | 2.6 | 0.00 | 0.00 | 0.00 | 82 | 1015.2 |
| 20260903125146 | 84 | 325 | 0.9 | 2.6 | 0.00 | 0.00 | 0.00 | 85 | 1015.2 |
| 20260903124647 | 83 | 46 | 0.9 | 2.6 | 0.00 | 0.00 | 0.00 | 86 | 1014.9 |
| 20260903124146 | 83 | 300 | 0.9 | 1.7 | 0.00 | 0.00 | 0.00 | 87 | 1015.2 |
| 20260903123647 | 83 | 181 | 1.7 | 2.6 | 0.00 | 0.00 | 0.00 | 88 | 1015.2 |
| 20260903123149 | 82 | 105 | 0.0 | 2.6 | 0.00 | 0.00 | 0.00 | 90 | 1015.2 |
| 20260903122647 | 81 | 269 | 0.0 | 2.6 | 0.00 | 0.00 | 0.00 | 93 | 1015.2 |
| 20260903122147 | 80 | 323 | 0.9 | 2.6 | 0.00 | 0.00 | 0.00 | 95 | 1014.9 |
| 20260903121650 | 80 | 182 | 1.7 | 2.6 | 0.00 | 0.00 | 0.00 | 95 | 1015.2 |
| 20260903121146 | 79 | 187 | 1.7 | 2.6 | 0.00 | 0.00 | 0.00 | 96 | 1014.9 |
| 20260903120647 | 79 | 169 | 0.0 | 2.6 | 0.00 | 0.00 | 0.00 | 96 | 1014.9 |
| 20260903120147 | 79 | 269 | 0.0 | 2.6 | 0.00 | 0.00 | 0.00 | 97 | 1015.2 |
| 20260903115646 | 78 | 272 | 0.9 | 2.6 | 0.00 | 0.00 | 0.00 | 97 | 1014.9 |
| 20260903115146 | 78 | 132 | 1.7 | 2.6 | 0.00 | 0.00 | 0.00 | 97 | 1014.9 |
| 20260903114646 | 78 | 323 | 1.7 | 3.5 | 0.00 | 0.00 | 0.00 | 97 | 1014.9 |
| 20260903114149 | 78 | 84 | 1.7 | 2.6 | 0.00 | 0.00 | 0.00 | 97 | 1014.9 |
| 20260903113650 | 78 | 276 | 1.7 | 2.6 | 0.00 | 0.00 | 0.00 | 97 | 1014.9 |
| 20260903113147 | 78 | 30 | 0.9 | 2.6 | 0.00 | 0.00 | 0.00 | 97 | 1014.6 |
| 20260903112648 | 78 | 196 | 0.9 | 2.6 | 0.00 | 0.00 | 0.00 | 97 | 1014.6 |
| 20260903112147 | 78 | 271 | 0.9 | 1.7 | 0.00 | 0.00 | 0.00 | 96 | 1014.6 |
| 20260903111646 | 79 | 173 | 0.0 | 2.6 | 0.00 | 0.00 | 0.00 | 96 | 1014.2 |
| 20260903111149 | 79 | 227 | 0.0 | 1.7 | 0.00 | 0.00 | 0.00 | 96 | 1014.2 |
| 20260903110647 | 79 | 304 | 0.0 | 1.7 | 0.00 | 0.00 | 0.00 | 96 | 1014.2 |
| 20260903110146 | 79 | 315 | 0.0 | 0.9 | 0.00 | 0.00 | 0.00 | 96 | 1014.2 |
| 20260903105647 | 79 | 224 | 0.0 | 0.0 | 0.00 | 0.00 | 0.00 | 96 | 1014.2 |
| 20260903105146 | 79 | 245 | 0.9 | 0.9 | 0.00 | 0.00 | 0.00 | 96 | 1014.2 |
| 20260903104648 | 79 | 241 | 0.0 | 0.9 | 0.00 | 0.00 | 0.00 | 96 | 1014.2 |
| 20260903104146 | 79 | 242 | 0.9 | 0.9 | 0.00 | 0.00 | 0.00 | 95 | 1014.2 |
| 20260903103648 | 79 | 165 | 0.0 | 0.9 | 0.00 | 0.00 | 0.00 | 95 | 1014.2 |
| 20260903103148 | 79 | 224 | 0.9 | 0.9 | 0.00 | 0.00 | 0.00 | 95 | 1014.2 |
| 20260903102647 | 80 | 225 | 0.0 | 0.9 | 0.00 | 0.00 | 0.00 | 94 | 1014.2 |
| 20260903102146 | 80 | 230 | 0.9 | 1.7 | 0.00 | 0.00 | 0.00 | 93 | 1014.2 |
| 20260903101647 | 80 | 322 | 0.0 | 1.7 | 0.00 | 0.00 | 0.00 | 93 | 1014.2 |
| 20260903101147 | 80 | 31 | 0.0 | 1.7 | 0.00 | 0.00 | 0.00 | 93 | 1014.2 |
| 20260903100647 | 80 | 66 | 0.0 | 1.7 | 0.00 | 0.00 | 0.00 | 93 | 1014.2 |
| 20260903100146 | 80 | 58 | 1.7 | 2.6 | 0.00 | 0.00 | 0.00 | 94 | 1013.9 |